This demonstration page uses our WeatherBlox Daily Observations layout. Learn more.

Left ArrowRight Arrow

Hourly Observations for June 4, 2021

Temp ( °F °C ) Dew Point ( °F °C ) Humidity (%) Winds ( mph kmh ) Pressure ( in mb ) Visibility ( mi km ) Precip ( " mm )
12:59 am 00:59 Mostly Cloudy 72 22.2 68 20 87 87 S 10 17 30.03 1017 10 16 0.00 0.00
1:59 am 01:59 Cloudy 72 22.2 69 20.6 91 91 SSW 8 13 30.02 1017 10 16 0.03 0.76
2:06 am 02:06 Cloudy 72 22.2 69 20.6 91 91 SSW 10 17 30.02 1017 10 16 0.00 0.00
2:13 am 02:13 Cloudy with Thunderstorms 72 22.2 69 20.6 91 91 SSW 10 17 30.02 1017 9 14 0.00 0.00
2:46 am 02:46 Cloudy with Thunderstorms 72 22.2 68 20 87 87 S 8 13 30.01 1016 2 3 0.02 0.51
2:54 am 02:54 Cloudy with Thunderstorms 72 22 68 20 88 88 S 8 13 30.01 1016 10 16 0.02 0.51
2:59 am 02:59 Cloudy 72 22.2 68 20 87 87 S 10 17 30.01 1016 10 16 0.03 0.76
3:59 am 03:59 Cloudy 72 22.2 69 20.6 91 91 SSW 7 11 30.00 1016 10 16 0.02 0.51
4:06 am 04:06 Cloudy 72 22.2 69 20.6 91 91 S 9 15 30.00 1016 10 16 0.01 0.25
4:59 am 04:59 Cloudy with Thunderstorms 72 22.2 69 20.6 91 91 SSW 8 13 29.99 1016 9 14 0.03 0.76
5:59 am 05:59 Mostly Cloudy 71 21.7 69 20.6 94 94 S 5 7 29.99 1016 10 16 0.02 0.51
6:59 am 06:59 Cloudy 72 22.2 69 20.6 91 91 SSW 7 11 30.00 1016 10 16 0.00 0.00
7:23 am 07:23 Mostly Cloudy 72 22.2 69 20.6 91 91 undefined N/A 30.01 1016 10 16 0.00 0.00
7:59 am 07:59 Cloudy 72 22.2 69 20.6 91 91 SW 7 11 30.01 1016 10 16 0.00 0.00
8:49 am 08:49 Cloudy with Light Rain 73 22.8 69 20.6 87 87 W 6 9 30.03 1017 2 3 0.00 0.00
8:56 am 08:56 Cloudy with Rain 73 23 70 21 89 89 W 8 13 30.03 1017 2 2 0.00 0.00
8:59 am 08:59 Cloudy with Light Rain 72 22.2 69 20.6 91 91 W 9 15 30.04 1017 2 3 0.00 0.00
9:06 am 09:06 Cloudy with Rain 72 22.2 69 20.6 91 91 W 9 15 30.03 1017 2 3 0.00 0.00
9:41 am 09:41 Cloudy with Light Rain 72 22.2 68 20 87 87 SE 7 11 30.01 1016 5 8 0.02 0.51
9:59 am 09:59 Cloudy with Light Rain 72 22.2 69 20.6 91 91 SSW 8 13 30.02 1017 5 8 0.02 0.51
10:59 am 10:59 Cloudy 73 22.8 68 20 84 84 WSW 5 7 30.01 1016 10 16 0.03 0.76
11:59 am 11:59 Cloudy 74 23.3 69 20.6 85 85 SSW 7 11 30.02 1017 10 16 0.00 0.00
12:59 pm 12:59 Cloudy 75 23.9 68 20 79 79 SSW 9 15 30.01 1016 10 16 0.00 0.00
1:59 pm 13:59 Cloudy 79 26.1 68 20 69 69 SSW 9 15 29.99 1016 10 16 0.00 0.00
2:59 pm 14:59 Mostly Cloudy 79 26.1 66 18.9 65 65 SSW 9 15 29.97 1015 10 16 0.00 0.00
3:59 pm 15:59 Mostly Cloudy 82 27.8 67 19.4 60 60 SSW 13 20 29.95 1014 10 16 0.00 0.00
4:59 pm 16:59 Mostly Cloudy 82 27.8 68 20 63 63 SW 12 19 29.96 1015 10 16 0.00 0.00
5:59 pm 17:59 Mostly Cloudy 81 27.2 67 19.4 62 62 SSW 7 11 29.94 1014 10 16 0.00 0.00
6:23 pm 18:23 Mostly Cloudy with Thunderstorms 81 27.2 68 20 65 65 SSW 9 15 29.95 1014 10 16 0.00 0.00
6:53 pm 18:53 Windy with Storms Likely 70 21 64 18 83 83 NW 37 59 30.00 1016 1 1 0.00 0.00
6:59 pm 18:59 Cloudy with Strong Thunderstorms 68 20 64 17.8 87 87 WNW 21 33 29.99 1016 1 1 0.00 0.00
7:03 pm 19:03 Cloudy with Strong Thunderstorms 68 20 65 18.3 90 90 W 17 28 29.99 1016 1 1 0.00 0.00
7:09 pm 19:09 Windy with Storms Likely 69 20.6 65 18.3 87 87 W 21 33 30.00 1016 1 2 0.00 0.00
7:28 pm 19:28 Cloudy with Thunderstorms 70 21.1 66 18.9 87 87 W 10 17 29.99 1016 2 3 0.00 0.00
7:35 pm 19:35 Cloudy with Thunderstorms 70 21.1 66 18.9 87 87 WSW 10 17 29.99 1016 3 4 0.00 0.00
7:43 pm 19:43 Cloudy with Thunderstorms 70 21.1 65 18.3 84 84 W 12 19 30.00 1016 4 6 0.00 0.00
7:59 pm 19:59 Cloudy with Thunderstorms 70 21.1 66 18.9 87 87 SW 10 17 30.00 1016 4 6 0.00 0.00
8:59 pm 20:59 Mostly Cloudy 69 20.6 65 18.3 87 87 SSW 5 7 30.01 1016 10 16 0.00 0.00
9:59 pm 21:59 Partly Cloudy 69 20.6 65 18.3 87 87 SW 5 7 30.03 1017 10 16 0.00 0.00
10:59 pm 22:59 Mostly Clear 69 20.6 65 18.3 87 87 SSW 3 6 30.04 1017 10 16 0.00 0.00
11:59 pm 23:59 Partly Cloudy 68 20 64 17.8 87 87 Calm 30.04 1017 10 16 0.00 0.00

Powered by AerisWeather